Location: Mount Washington Observatory
(44.2667°N, 71.3000°W)
Time: 13:14:45
(UTC-04:00)

BlueWalker 3 - Visible Passes

Search period start: 08 June 2026 00:00
Search period end: 18 June 2026 00:00
Orbit: 447 x 456 km, 53.2° (Epoch: 8 June)

Date Brightness Start Highest point End Pass type
(mag) Time Alt. Az. Time Alt. Az. Time Alt. Az.
8 Jun 2.4 21:52:41 10° WNW 21:56:02 41° SW 21:58:00 21° SSE visible
9 Jun 2.0 21:15:30 10° WNW 21:18:59 57° SW 21:22:14 11° SE visible
10 Jun 4.3 22:18:05 10° WSW 22:18:41 10° SW 22:19:18 10° SW visible
11 Jun 4.1 21:39:45 10° W 21:41:43 14° SW 21:43:40 10° SSW visible
